Simultaneous Nadir Overpasses (SNOs) Predictions

Prediction of SNOs between NOAA-15 and METOP-C Satellite Orbit:

Table of predicted SNOs for the next 14.0 days since TLE Epoch: 12/17/2023
Index Date (NOAA-15) Time (NOAA-15) Lat,Lon (NOAA-15) SZA (NOAA-15 ) Date (METOP-C) Time (METOP-C) Lat,Lon (METOP-C) SZA (METOP-C ) Distance(km) Time Diff (sec)
1 12/27/2023 17:50:35 -81.07, 130.69 73.85 12/27/2023 17:49:26 -81.06, 130.56 73.90 2.81 69
2 12/27/2023 18:41:06 81.06, -61.69 106.16 12/27/2023 18:40:06 81.08, -61.63 106.16 2.00 60
3 12/27/2023 19:31:35 -81.07, 105.61 73.85 12/27/2023 19:30:47 -81.07, 105.43 73.88 3.12 48
4 12/27/2023 20:22:07 81.07, -87.15 106.15 12/27/2023 20:21:28 81.07, -87.14 106.13 0.22 39
5 12/27/2023 21:12:36 -81.07, 80.15 73.86 12/27/2023 21:12:08 -81.07, 80.29 73.86 2.40 28
6 12/27/2023 22:03:07 81.06,-112.24 106.15 12/27/2023 22:02:49 81.08,-112.27 106.15 1.72 18
7 12/27/2023 22:53:36 -81.07, 55.07 73.86 12/27/2023 22:53:29 -81.08, 55.16 73.84 2.29 7
8 12/27/2023 23:44:08 81.07,-137.70 106.14 12/27/2023 23:44:11 81.07,-137.78 106.13 1.31 3
9 12/28/2023 00:34:37 -81.08, 29.61 73.87 12/28/2023 00:34:51 -81.08, 29.65 73.87 0.69 14
10 12/28/2023 01:25:08 81.07,-162.79 106.14 12/28/2023 01:25:32 81.08,-162.91 106.15 2.55 24
11 12/28/2023 02:15:37 -81.07, 4.52 73.87 12/28/2023 02:16:12 -81.08, 4.52 73.85 1.62 35
12 12/28/2023 03:06:09 81.08, 171.75 106.13 12/28/2023 03:06:54 81.07, 171.58 106.13 2.82 45
13 12/28/2023 03:56:38 -81.08, -20.93 73.88 12/28/2023 03:57:34 -81.08, -20.99 73.87 1.04 56
14 12/28/2023 04:47:10 81.09, 146.28 106.11 12/28/2023 04:48:15 81.08, 146.45 106.15 2.88 65



Historial Predications of SNOs between NOAA-15 and METOP-C
